Location: George Washington National Forest Helicopter Landing Site
(38.6463°N, 79.0851°W)
Time: 01:56:41
(UTC-04:00)

Tiros 1 - Pass Details

Date: 28 August 2019
Orbit: 631 x 664 km, 48.4° (Epoch: 17 September)

Event Time Altitude Azimuth Distance (km) Brightness Sun altitude
Exits shadow 04:31:08 33° 318° (NW) 1,064 8.1 -23.9°
Maximum altitude 04:33:05 65° 29° (NNE) 700 7.4 -23.6°
Drops below altitude 10° 04:37:44 10° 112° (ESE) 2,031 10.1 -22.9°
Sets 04:40:06 0° 115° (ESE) 2,944 10.9 -22.5°
